Regional Weather Roundup
Issued by NWS Memphis, TN

Home | Current Version | Previous Version | Text Only | Print | Product List | Glossary On
Versions: 1 2 3 4 5 6 7 8 9 10 11 12 13 14 15 16 17 18 19 20 21 22 23 24 25 26 27 28 29 30 31 32 33 34 35 36 37 38 39 40 41 42 43 44 45 46 47 48 49 50
000
ASUS44 KMEG 211710
RWRMEG
MEMPHIS CWA HOURLY WEATHER ROUNDUP
NATIONAL WEATHER SERVICE MEMPHIS TN
1100 AM CST TUE FEB 21 2017

...WEST TENNESSEE...

CITY           SKY/WX    TMP DP  RH WIND       PRES   REMARKS
MEMPHIS INTL   CLOUDY    61  60  97 S14       29.90R
NWS MEMPHIS      N/A     62 N/A N/A MISG        N/A
JACKSON        CLOUDY    64  58  80 S10       29.92S
BOLIVAR        CLOUDY    63  57  82 S8        29.90F
UNION CITY     CLOUDY    61  61 100 CALM      29.92R
PARIS          SUNNY     63  55  77 S12       29.92R
HUNTINGDON     MOSUNNY   66  57  72 S16       29.92R


...EASTERN ARKANSAS...

CITY           SKY/WX    TMP DP  RH WIND       PRES   REMARKS
JONESBORO      CLOUDY    61  59  93 E6        29.87S
WEST MEMPHIS   CLOUDY    62  61  96 S14       29.89R
BATESVILLE     CLOUDY    59  55  88 NE6       29.87S
NEWPORT        CLOUDY    59  58  96 NE9         N/A
WALNUT RIDGE   CLOUDY    59  54  82 NE10      29.87S
BLYTHEVILLE    CLOUDY    62  59  90 SE7       29.90S
NW BLYTHEVILLE CLOUDY    61  57  88 SE9       29.89S
SEARCY         CLOUDY    61  61 100 S3        29.88R FOG
STUTTGART      CLOUDY    63  52  67 S12       29.89R
PINE BLUFF     CLOUDY    61  59  93 SW7       29.88S
MONTICELLO     CLOUDY    61  57  87 SW5       29.90R


...NORTH MISSISSIPPI...

CITY           SKY/WX    TMP DP  RH WIND       PRES   REMARKS
TUPELO         LGT RAIN  61  58  90 S12       29.93R
OXFORD         CLOUDY    57  57 100 S7        29.95R
BATESVILLE     DRIZZLE   60  59  94 S7        29.93S
OLIVE BRANCH   CLOUDY   N/A N/A N/A S9        29.90R
TUNICA         CLOUDY    61  59  94 S9        29.91R FOG
CORINTH        LGT RAIN  64  57  77 S10       29.90F
GREENWOOD      LGT RAIN  61  58  90 CALM      29.93S FOG
COLUMBUS       CLOUDY    61  59  94 S12       29.95R
GOLDEN TRIANGL CLOUDY    61  55  82 S12       29.92R


...SOUTHEAST MISSOURI...

CITY           SKY/WX    TMP DP  RH WIND       PRES   REMARKS
KENNETT        CLOUDY    61  59  94 E8        29.88F FOG
WEST PLAINS    LGT RAIN  58  57  97 E6        29.92S FOG
POPLAR BLUFF   LGT RAIN  58  56  93 NE6       29.90S FOG
CAPE GIRARDEAU CLOUDY    61  51  70 SE6       29.93R


...NORTHWEST ALABAMA...

CITY           SKY/WX    TMP DP  RH WIND       PRES   REMARKS
MUSCLE SHOALS  CLOUDY    67  53  61 S20G25    29.96F


...MIDDLE TENNESSEE...

CITY           SKY/WX    TMP DP  RH WIND       PRES   REMARKS
NASHVILLE      CLOUDY    68  51  54 S18G24    29.98F
CLARKSVILLE    CLOUDY    62  53  72 SE13      29.93F
COLUMBIA       PTSUNNY   66  59  77 S14       29.94S


...WESTERN KENTUCKY...

CITY           SKY/WX    TMP DP  RH WIND       PRES   REMARKS
PADUCAH        CLOUDY    62  53  72 E6        29.92R
FORT CAMPBELL  CLOUDY    63  54  72 SE12      29.92F


...CENTRAL ARKANSAS...

CITY           SKY/WX    TMP DP  RH WIND       PRES   REMARKS
LITTLE ROCK    CLOUDY    61  60  97 CALM      29.86R


SKY/WX REPORTED AS FAIR MEANS FEW OR NO CLOUDS BELOW
12 THOUSAND FEET.





USA.gov is the U.S. government's official web portal to all federal, state and local government web resources and services.